Simultaneous Nadir Overpasses (SNOs) Predictions

Prediction of SNOs between AQUA and METOP-B Satellite Orbit:

Table of predicted SNOs for the next 14.0 days since TLE Epoch: 8/30/2019
Index Date (AQUA) Time (AQUA) Lat,Lon (AQUA) SZA (AQUA ) Date (METOP-B) Time (METOP-B) Lat,Lon (METOP-B) SZA (METOP-B ) Distance(km) Time Diff (sec)
1 09/01/2019 02:38:07 -73.82, -45.30 114.60 09/01/2019 02:37:04 -73.83, -45.22 114.59 2.42 63
2 09/01/2019 03:27:36 73.87, 122.23 65.47 09/01/2019 03:27:43 73.87, 122.20 65.47 0.97 7
3 09/01/2019 04:17:08 -74.23, -70.94 114.14 09/01/2019 04:18:18 -74.20, -69.65 114.21 39.30 70
4 09/03/2019 22:12:22 -73.82, 21.14 113.58 09/03/2019 22:11:26 -73.83, 21.18 113.57 1.32 56
5 09/03/2019 23:01:51 73.87,-171.33 66.49 09/03/2019 23:02:05 73.86,-171.41 66.48 2.68 14
6 09/03/2019 23:51:28 -74.48, -5.11 112.85 09/03/2019 23:52:35 -74.44, -2.62 112.97 74.35 67
7 09/06/2019 17:46:37 -73.82, 87.58 112.55 09/06/2019 17:45:48 -73.82, 87.58 112.54 0.05 49
8 09/06/2019 18:36:06 73.88,-104.91 67.53 09/06/2019 18:36:26 73.90,-104.91 67.55 2.27 20
9 09/09/2019 13:20:51 -73.83, 154.00 111.49 09/09/2019 13:20:09 -73.82, 153.97 111.50 1.76 42
10 09/09/2019 14:10:20 73.89, -38.50 68.59 09/09/2019 14:10:47 73.89, -38.52 68.59 0.79 27
11 09/12/2019 08:55:06 -73.84,-139.59 110.41 09/12/2019 08:54:30 -73.86,-139.52 110.40 2.77 36
12 09/12/2019 09:44:35 73.91, 27.90 69.67 09/12/2019 09:45:08 73.92, 27.97 69.68 2.91 33




NCC Satellite Simultaneous Nadir Overpasses (SNOs) Prediction Service
